date,time,SUV Intensity [MED/Hr],UV Index,Daily total [MED],Since Last [MED]
25/09/2022,00:01:02,0.001,0.0,0.0,0.0
25/09/2022,00:02:02,0.000,0.0,0.0,0.0
25/09/2022,00:03:02,0.000,0.0,0.0,0.0
25/09/2022,00:04:10,0.000,0.0,0.0,0.0
25/09/2022,00:05:02,-0.000,0.0,0.0,0.0
25/09/2022,00:06:02,0.000,0.0,0.0,0.0
25/09/2022,00:07:10,0.000,0.0,0.0,0.0
25/09/2022,00:08:02,-0.000,0.0,0.0,0.0
25/09/2022,00:09:02,0.001,0.0,0.0,0.0
25/09/2022,00:10:01,0.000,0.0,0.0,0.0
25/09/2022,00:11:02,0.001,0.0,0.0,0.0
25/09/2022,00:12:02,-0.000,0.0,0.0,0.0
25/09/2022,00:13:02,0.000,0.0,0.0,0.0
25/09/2022,00:14:02,0.000,0.0,0.0,0.0
25/09/2022,00:15:01,0.000,0.0,0.0,0.0
25/09/2022,00:16:02,0.000,0.0,0.0,0.0
25/09/2022,00:17:10,0.001,0.0,0.0,0.0
25/09/2022,00:18:02,0.000,0.0,0.0,0.0
25/09/2022,00:19:02,0.000,0.0,0.0,0.0
25/09/2022,00:20:02,0.001,0.0,0.0,0.0
25/09/2022,00:21:02,0.000,0.0,0.0,0.0
25/09/2022,00:22:02,0.001,0.0,0.0,0.0
25/09/2022,00:23:02,0.001,0.0,0.0,0.0
25/09/2022,00:24:03,-0.000,0.0,0.0,0.0
25/09/2022,00:25:02,-0.001,0.0,0.0,0.0
25/09/2022,00:26:02,0.001,0.0,0.0,0.0
25/09/2022,00:27:02,0.001,0.0,0.0,0.0
25/09/2022,00:28:02,0.000,0.0,0.0,0.0
25/09/2022,00:29:02,0.001,0.0,0.0,0.0
25/09/2022,00:30:02,-0.001,0.0,0.0,0.0
25/09/2022,00:31:02,0.001,0.0,0.0,0.0
25/09/2022,00:32:02,0.000,0.0,0.0,0.0
25/09/2022,00:33:02,0.000,0.0,0.0,0.0
25/09/2022,00:34:02,0.002,0.0,0.0,0.0
25/09/2022,00:35:10,0.000,0.0,0.0,0.0
25/09/2022,00:36:01,0.000,0.0,0.0,0.0
25/09/2022,00:37:02,0.001,0.0,0.0,0.0
25/09/2022,00:38:02,-0.001,0.0,0.0,0.0
25/09/2022,00:39:02,0.000,0.0,0.0,0.0
25/09/2022,00:40:02,0.000,0.0,0.0,0.0
25/09/2022,00:41:02,0.000,0.0,0.0,0.0
25/09/2022,00:42:10,-0.000,0.0,0.0,0.0
25/09/2022,00:43:01,-0.000,0.0,0.0,0.0
25/09/2022,00:44:01,0.000,0.0,0.0,0.0
25/09/2022,00:45:10,-0.000,0.0,0.0,0.0
25/09/2022,00:46:02,0.001,0.0,0.0,0.0
25/09/2022,00:47:02,0.002,0.0,0.0,0.0
25/09/2022,00:48:01,0.000,0.0,0.0,0.0
25/09/2022,00:49:02,0.000,0.0,0.0,0.0
25/09/2022,00:50:15,0.001,0.0,0.0,0.0
25/09/2022,00:52:03,0.001,0.0,0.0,0.0
25/09/2022,00:53:02,0.001,0.0,0.0,0.0
25/09/2022,00:54:02,0.001,0.0,0.0,0.0
25/09/2022,00:55:10,0.001,0.0,0.0,0.0
25/09/2022,00:56:02,-0.000,0.0,0.0,0.0
25/09/2022,00:57:10,0.001,0.0,0.0,0.0
25/09/2022,00:58:11,0.000,0.0,0.0,0.0
25/09/2022,00:59:02,0.000,0.0,0.0,0.0
25/09/2022,01:00:02,0.000,0.0,0.0,0.0
25/09/2022,01:01:02,0.001,0.0,0.0,0.0
25/09/2022,01:02:02,0.001,0.0,0.0,0.0
25/09/2022,01:03:02,0.001,0.0,0.0,0.0
25/09/2022,01:04:02,0.001,0.0,0.0,0.0
25/09/2022,01:05:02,0.001,0.0,0.0,0.0
25/09/2022,01:06:02,0.001,0.0,0.0,0.0
25/09/2022,01:07:02,0.000,0.0,0.0,0.0
25/09/2022,01:08:02,-0.000,0.0,0.0,0.0
25/09/2022,01:09:02,0.001,0.0,0.0,0.0
25/09/2022,01:10:11,0.000,0.0,0.0,0.0
25/09/2022,01:11:02,0.000,0.0,0.0,0.0
25/09/2022,01:12:04,0.001,0.0,0.0,0.0
25/09/2022,01:13:02,0.001,0.0,0.0,0.0
25/09/2022,01:14:02,0.001,0.0,0.0,0.0
25/09/2022,01:15:02,0.001,0.0,0.0,0.0
25/09/2022,01:16:02,0.001,0.0,0.0,0.0
25/09/2022,01:17:02,-0.000,0.0,0.0,0.0
25/09/2022,01:18:02,0.002,0.0,0.0,0.0
25/09/2022,01:19:02,0.001,0.0,0.0,0.0
25/09/2022,01:20:14,0.001,0.0,0.0,0.0
25/09/2022,01:22:15,-0.000,0.0,0.0,0.0
25/09/2022,01:24:03,0.001,0.0,0.0,0.0
25/09/2022,01:25:02,0.001,0.0,0.0,0.0
25/09/2022,01:26:02,0.001,0.0,0.0,0.0
25/09/2022,01:27:02,0.001,0.0,0.0,0.0
25/09/2022,01:27:53,-0.000,0.0,0.0,0.0
25/09/2022,01:29:04,0.001,0.0,0.0,0.0
25/09/2022,01:30:11,0.001,0.0,0.0,0.0
25/09/2022,01:31:01,0.001,0.0,0.0,0.0
25/09/2022,01:32:11,0.001,0.0,0.0,0.0
25/09/2022,01:33:02,0.001,0.0,0.0,0.0
25/09/2022,01:34:02,0.001,0.0,0.0,0.0
25/09/2022,01:35:10,0.001,0.0,0.0,0.0
25/09/2022,01:36:02,0.000,0.0,0.0,0.0
25/09/2022,01:37:02,0.001,0.0,0.0,0.0
25/09/2022,01:38:02,0.001,0.0,0.0,0.0
25/09/2022,01:39:02,0.001,0.0,0.0,0.0
25/09/2022,01:40:02,0.001,0.0,0.0,0.0
25/09/2022,01:41:02,0.000,0.0,0.0,0.0
25/09/2022,01:42:02,0.000,0.0,0.0,0.0
25/09/2022,01:43:02,0.000,0.0,0.0,0.0
25/09/2022,01:44:02,-0.000,0.0,0.0,0.0
25/09/2022,01:45:03,0.000,0.0,0.0,0.0
25/09/2022,01:46:02,0.001,0.0,0.0,0.0
25/09/2022,01:47:02,0.001,0.0,0.0,0.0
25/09/2022,01:48:10,0.001,0.0,0.0,0.0
25/09/2022,01:49:02,-0.000,0.0,0.0,0.0
25/09/2022,01:50:02,0.001,0.0,0.0,0.0
25/09/2022,01:51:02,0.000,0.0,0.0,0.0
25/09/2022,01:52:02,0.001,0.0,0.0,0.0
25/09/2022,01:53:02,0.001,0.0,0.0,0.0
25/09/2022,01:54:02,0.001,0.0,0.0,0.0
25/09/2022,01:55:02,0.002,0.0,0.0,0.0
25/09/2022,01:56:02,0.001,0.0,0.0,0.0
25/09/2022,01:57:02,0.001,0.0,0.0,0.0
25/09/2022,01:58:10,0.001,0.0,0.0,0.0
25/09/2022,01:59:02,0.001,0.0,0.0,0.0
25/09/2022,02:00:02,0.002,0.0,0.0,0.0
25/09/2022,02:01:02,0.000,0.0,0.0,0.0
25/09/2022,02:02:02,0.001,0.0,0.0,0.0
25/09/2022,02:03:02,0.001,0.0,0.0,0.0
25/09/2022,02:04:02,0.001,0.0,0.0,0.0
25/09/2022,02:05:02,0.001,0.0,0.0,0.0
25/09/2022,02:06:02,0.001,0.0,0.0,0.0
25/09/2022,02:07:02,0.002,0.0,0.0,0.0
25/09/2022,02:08:10,0.000,0.0,0.0,0.0
25/09/2022,02:09:02,0.001,0.0,0.0,0.0
25/09/2022,02:10:02,0.000,0.0,0.0,0.0
25/09/2022,02:11:10,0.001,0.0,0.0,0.0
25/09/2022,02:12:02,0.001,0.0,0.0,0.0
25/09/2022,02:13:02,0.002,0.0,0.0,0.0
25/09/2022,02:14:01,0.001,0.0,0.0,0.0
25/09/2022,02:15:02,0.001,0.0,0.0,0.0
25/09/2022,02:16:02,0.001,0.0,0.0,0.0
25/09/2022,02:17:02,0.001,0.0,0.0,0.0
25/09/2022,02:18:02,0.001,0.0,0.0,0.0
25/09/2022,02:19:02,0.001,0.0,0.0,0.0
25/09/2022,02:20:02,0.002,0.0,0.0,0.0
25/09/2022,02:21:02,0.001,0.0,0.0,0.0
25/09/2022,02:22:02,0.002,0.0,0.0,0.0
25/09/2022,02:23:02,0.001,0.0,0.0,0.0
25/09/2022,02:24:02,0.001,0.0,0.0,0.0
25/09/2022,02:25:02,0.002,0.0,0.0,0.0
25/09/2022,02:26:02,0.001,0.0,0.0,0.0
25/09/2022,02:27:02,0.001,0.0,0.0,0.0
25/09/2022,02:28:02,0.001,0.0,0.0,0.0
25/09/2022,02:29:02,0.001,0.0,0.0,0.0
25/09/2022,02:30:02,0.001,0.0,0.0,0.0
25/09/2022,02:31:02,0.002,0.0,0.0,0.0
25/09/2022,02:32:02,-0.000,0.0,0.0,0.0
25/09/2022,02:33:11,0.001,0.0,0.0,0.0
25/09/2022,02:34:01,0.000,0.0,0.0,0.0
25/09/2022,02:35:02,0.001,0.0,0.0,0.0
25/09/2022,02:36:02,0.001,0.0,0.0,0.0
25/09/2022,02:37:02,0.000,0.0,0.0,0.0
25/09/2022,02:38:02,0.001,0.0,0.0,0.0
25/09/2022,02:39:02,0.000,0.0,0.0,0.0
25/09/2022,02:40:02,0.001,0.0,0.0,0.0
25/09/2022,02:41:02,0.001,0.0,0.0,0.0
25/09/2022,02:42:03,0.000,0.0,0.0,0.0
25/09/2022,02:43:02,0.001,0.0,0.0,0.0
25/09/2022,02:44:02,0.001,0.0,0.0,0.0
25/09/2022,02:45:02,0.001,0.0,0.0,0.0
25/09/2022,02:46:11,0.001,0.0,0.0,0.0
25/09/2022,02:47:18,0.000,0.0,0.0,0.0
25/09/2022,02:49:03,0.001,0.0,0.0,0.0
25/09/2022,02:50:02,0.001,0.0,0.0,0.0
25/09/2022,02:51:02,0.001,0.0,0.0,0.0
25/09/2022,02:52:02,0.001,0.0,0.0,0.0
25/09/2022,02:53:02,0.002,0.0,0.0,0.0
25/09/2022,02:54:02,0.000,0.0,0.0,0.0
25/09/2022,02:55:02,0.000,0.0,0.0,0.0
25/09/2022,02:56:02,0.001,0.0,0.0,0.0
25/09/2022,02:57:02,0.001,0.0,0.0,0.0
25/09/2022,02:58:02,0.001,0.0,0.0,0.0
25/09/2022,02:59:10,0.001,0.0,0.0,0.0
25/09/2022,03:00:03,0.001,0.0,0.0,0.0
25/09/2022,03:01:03,0.001,0.0,0.0,0.0
25/09/2022,03:02:02,0.001,0.0,0.0,0.0
25/09/2022,03:03:02,0.001,0.0,0.0,0.0
25/09/2022,03:04:02,0.001,0.0,0.0,0.0
25/09/2022,03:05:02,0.002,0.0,0.0,0.0
25/09/2022,03:06:02,0.002,0.0,0.0,0.0
25/09/2022,03:07:02,0.002,0.0,0.0,0.0
25/09/2022,03:08:02,0.000,0.0,0.0,0.0
25/09/2022,03:09:02,0.001,0.0,0.0,0.0
25/09/2022,03:10:02,0.001,0.0,0.0,0.0
25/09/2022,03:11:02,0.001,0.0,0.0,0.0
25/09/2022,03:12:03,0.001,0.0,0.0,0.0
25/09/2022,03:13:02,0.001,0.0,0.0,0.0
25/09/2022,03:14:03,0.001,0.0,0.0,0.0
25/09/2022,03:15:02,0.002,0.0,0.0,0.0
25/09/2022,03:16:05,0.001,0.0,0.0,0.0
25/09/2022,03:17:02,0.002,0.0,0.0,0.0
25/09/2022,03:18:03,0.000,0.0,0.0,0.0
25/09/2022,03:19:02,0.001,0.0,0.0,0.0
25/09/2022,03:20:02,0.002,0.0,0.0,0.0
25/09/2022,03:21:02,0.001,0.0,0.0,0.0
25/09/2022,03:22:02,0.001,0.0,0.0,0.0
25/09/2022,03:23:02,0.001,0.0,0.0,0.0
25/09/2022,03:24:11,0.002,0.0,0.0,0.0
25/09/2022,03:25:02,0.001,0.0,0.0,0.0
25/09/2022,03:26:02,0.001,0.0,0.0,0.0
25/09/2022,03:27:11,0.001,0.0,0.0,0.0
25/09/2022,03:28:02,0.001,0.0,0.0,0.0
25/09/2022,03:29:02,0.001,0.0,0.0,0.0
25/09/2022,03:30:02,0.001,0.0,0.0,0.0
25/09/2022,03:31:02,0.001,0.0,0.0,0.0
25/09/2022,03:32:02,0.001,0.0,0.0,0.0
25/09/2022,03:33:02,0.001,0.0,0.0,0.0
25/09/2022,03:34:02,0.001,0.0,0.0,0.0
25/09/2022,03:35:02,0.002,0.0,0.0,0.0
25/09/2022,03:36:02,0.002,0.0,0.0,0.0
25/09/2022,03:37:11,0.001,0.0,0.0,0.0
25/09/2022,03:38:02,0.001,0.0,0.0,0.0
25/09/2022,03:39:03,0.002,0.0,0.0,0.0
25/09/2022,03:40:02,0.001,0.0,0.0,0.0
25/09/2022,03:41:02,0.001,0.0,0.0,0.0
25/09/2022,03:41:54,0.002,0.0,0.0,0.0
25/09/2022,03:43:02,0.001,0.0,0.0,0.0
25/09/2022,03:44:02,0.000,0.0,0.0,0.0
25/09/2022,03:45:02,0.002,0.0,0.0,0.0
25/09/2022,03:46:04,0.000,0.0,0.0,0.0
25/09/2022,03:47:02,0.001,0.0,0.0,0.0
25/09/2022,03:48:02,0.001,0.0,0.0,0.0
25/09/2022,03:49:02,0.001,0.0,0.0,0.0
25/09/2022,03:50:10,0.001,0.0,0.0,0.0
25/09/2022,03:51:03,0.001,0.0,0.0,0.0
25/09/2022,03:52:02,0.001,0.0,0.0,0.0
25/09/2022,03:53:02,0.002,0.0,0.0,0.0
25/09/2022,03:54:02,0.001,0.0,0.0,0.0
25/09/2022,03:55:02,0.001,0.0,0.0,0.0
25/09/2022,03:56:02,0.001,0.0,0.0,0.0
25/09/2022,03:57:02,0.000,0.0,0.0,0.0
25/09/2022,03:58:03,0.002,0.0,0.0,0.0
25/09/2022,03:59:02,0.001,0.0,0.0,0.0
25/09/2022,04:00:10,0.002,0.0,0.0,0.0
25/09/2022,04:01:02,0.001,0.0,0.0,0.0
25/09/2022,04:02:03,0.001,0.0,0.0,0.0
25/09/2022,04:03:02,0.001,0.0,0.0,0.0
25/09/2022,04:04:02,0.001,0.0,0.0,0.0
25/09/2022,04:05:02,0.001,0.0,0.0,0.0
25/09/2022,04:06:02,0.001,0.0,0.0,0.0
25/09/2022,04:07:03,0.001,0.0,0.0,0.0
25/09/2022,04:08:02,0.001,0.0,0.0,0.0
25/09/2022,04:09:02,0.001,0.0,0.0,0.0
25/09/2022,04:10:03,0.001,0.0,0.0,0.0
25/09/2022,04:11:02,0.001,0.0,0.0,0.0
25/09/2022,04:12:02,0.001,0.0,0.0,0.0
25/09/2022,04:13:02,0.002,0.0,0.0,0.0
25/09/2022,04:14:02,0.002,0.0,0.0,0.0
25/09/2022,04:15:02,0.001,0.0,0.0,0.0
25/09/2022,04:16:02,0.001,0.0,0.0,0.0
25/09/2022,04:17:02,0.002,0.0,0.0,0.0
25/09/2022,04:18:03,0.001,0.0,0.0,0.0
25/09/2022,04:19:02,0.002,0.0,0.0,0.0
25/09/2022,04:20:02,0.001,0.0,0.0,0.0
25/09/2022,04:21:03,0.001,0.0,0.0,0.0
25/09/2022,04:22:02,0.001,0.0,0.0,0.0
25/09/2022,04:23:02,0.001,0.0,0.0,0.0
25/09/2022,04:24:02,0.001,0.0,0.0,0.0
25/09/2022,04:25:02,0.001,0.0,0.0,0.0
25/09/2022,04:26:02,0.001,0.0,0.0,0.0
25/09/2022,04:27:02,0.001,0.0,0.0,0.0
25/09/2022,04:28:02,0.000,0.0,0.0,0.0
25/09/2022,04:29:02,0.001,0.0,0.0,0.0
25/09/2022,04:30:03,0.001,0.0,0.0,0.0
25/09/2022,04:31:02,0.002,0.0,0.0,0.0
25/09/2022,04:32:03,0.001,0.0,0.0,0.0
25/09/2022,04:33:02,0.002,0.0,0.0,0.0
25/09/2022,04:34:02,0.001,0.0,0.0,0.0
25/09/2022,04:35:02,0.001,0.0,0.0,0.0
25/09/2022,04:36:02,0.002,0.0,0.0,0.0
25/09/2022,04:37:02,0.002,0.0,0.0,0.0
25/09/2022,04:38:10,0.001,0.0,0.0,0.0
25/09/2022,04:39:03,0.001,0.0,0.0,0.0
25/09/2022,04:40:03,0.001,0.0,0.0,0.0
25/09/2022,04:41:02,0.001,0.0,0.0,0.0
25/09/2022,04:42:02,0.001,0.0,0.0,0.0
25/09/2022,04:43:02,0.001,0.0,0.0,0.0
25/09/2022,04:44:02,0.001,0.0,0.0,0.0
25/09/2022,04:45:11,0.001,0.0,0.0,0.0
25/09/2022,04:46:02,0.002,0.0,0.0,0.0
25/09/2022,04:47:02,0.002,0.0,0.0,0.0
25/09/2022,04:48:11,0.001,0.0,0.0,0.0
25/09/2022,04:49:02,0.001,0.0,0.0,0.0
25/09/2022,04:50:02,0.002,0.0,0.0,0.0
25/09/2022,04:51:11,0.001,0.0,0.0,0.0
25/09/2022,04:52:03,0.001,0.0,0.0,0.0
25/09/2022,04:53:10,0.002,0.0,0.0,0.0
25/09/2022,04:54:11,0.001,0.0,0.0,0.0
25/09/2022,04:55:02,0.001,0.0,0.0,0.0
25/09/2022,04:56:02,0.001,0.0,0.0,0.0
25/09/2022,04:57:03,0.001,0.0,0.0,0.0
25/09/2022,04:58:02,0.001,0.0,0.0,0.0
25/09/2022,04:59:02,0.001,0.0,0.0,0.0
25/09/2022,05:00:02,0.001,0.0,0.0,0.0
25/09/2022,05:01:02,0.001,0.0,0.0,0.0
25/09/2022,05:02:03,0.001,0.0,0.0,0.0
25/09/2022,05:03:02,0.002,0.0,0.0,0.0
25/09/2022,05:04:11,0.002,0.0,0.0,0.0
25/09/2022,05:05:02,0.001,0.0,0.0,0.0
25/09/2022,05:06:02,0.002,0.0,0.0,0.0
25/09/2022,05:07:02,0.001,0.0,0.0,0.0
25/09/2022,05:08:02,0.001,0.0,0.0,0.0
25/09/2022,05:09:02,0.002,0.0,0.0,0.0
25/09/2022,05:10:02,0.001,0.0,0.0,0.0
25/09/2022,05:10:55,0.002,0.0,0.0,0.0
25/09/2022,05:12:03,0.000,0.0,0.0,0.0
25/09/2022,05:13:02,0.001,0.0,0.0,0.0
25/09/2022,05:14:11,0.001,0.0,0.0,0.0
25/09/2022,05:15:02,0.001,0.0,0.0,0.0
25/09/2022,05:16:03,0.001,0.0,0.0,0.0
25/09/2022,05:17:02,0.001,0.0,0.0,0.0
25/09/2022,05:18:02,0.001,0.0,0.0,0.0
25/09/2022,05:19:04,0.001,0.0,0.0,0.0
25/09/2022,05:20:02,0.002,0.0,0.0,0.0
25/09/2022,05:21:02,0.001,0.0,0.0,0.0
25/09/2022,05:22:03,0.001,0.0,0.0,0.0
25/09/2022,05:23:02,0.002,0.0,0.0,0.0
25/09/2022,05:24:04,0.001,0.0,0.0,0.0
25/09/2022,05:25:02,0.001,0.0,0.0,0.0
25/09/2022,05:26:02,0.002,0.0,0.0,0.0
25/09/2022,05:27:11,0.001,0.0,0.0,0.0
25/09/2022,05:28:02,0.001,0.0,0.0,0.0
25/09/2022,05:29:02,0.001,0.0,0.0,0.0
25/09/2022,05:30:03,0.001,0.0,0.0,0.0
25/09/2022,05:31:02,0.001,0.0,0.0,0.0
25/09/2022,05:32:02,0.001,0.0,0.0,0.0
25/09/2022,05:33:03,0.001,0.0,0.0,0.0
25/09/2022,05:34:02,0.001,0.0,0.0,0.0
25/09/2022,05:35:02,0.002,0.0,0.0,0.0
25/09/2022,05:36:03,0.002,0.0,0.0,0.0
25/09/2022,05:37:02,0.002,0.0,0.0,0.0
25/09/2022,05:38:02,0.002,0.0,0.0,0.0
25/09/2022,05:39:10,0.002,0.0,0.0,0.0
25/09/2022,05:40:02,0.002,0.0,0.0,0.0
25/09/2022,05:41:02,0.003,0.0,0.0,0.0
25/09/2022,05:42:15,0.002,0.0,0.0,0.0
25/09/2022,05:44:03,0.002,0.0,0.0,0.0
25/09/2022,05:45:02,0.002,0.0,0.0,0.0
25/09/2022,05:46:12,0.002,0.0,0.0,0.0
25/09/2022,05:47:10,0.002,0.0,0.0,0.0
25/09/2022,05:47:50,0.002,0.0,0.0,0.0
25/09/2022,05:49:03,0.003,0.0,0.0,0.0
25/09/2022,05:50:04,0.002,0.0,0.0,0.0
25/09/2022,05:51:03,0.002,0.0,0.0,0.0
25/09/2022,05:52:03,0.004,0.0,0.0,0.0
25/09/2022,05:53:02,0.003,0.0,0.0,0.0
25/09/2022,05:54:02,0.003,0.0,0.0,0.0
25/09/2022,05:55:02,0.005,0.0,0.0,0.0
25/09/2022,05:56:11,0.004,0.0,0.0,0.0
25/09/2022,05:57:02,0.004,0.0,0.0,0.0
25/09/2022,05:58:03,0.004,0.0,0.0,0.0
25/09/2022,05:59:10,0.004,0.0,0.0,0.0
25/09/2022,06:00:03,0.004,0.0,0.0,0.0
25/09/2022,06:01:02,0.005,0.0,0.0,0.0
25/09/2022,06:02:03,0.006,0.0,0.0,0.0
25/09/2022,06:03:02,0.005,0.0,0.0,0.0
25/09/2022,06:04:03,0.006,0.0,0.0,0.0
25/09/2022,06:05:02,0.006,0.0,0.0,0.0
25/09/2022,06:06:02,0.006,0.0,0.0,0.0
25/09/2022,06:07:02,0.005,0.0,0.0,0.0
25/09/2022,06:08:03,0.006,0.0,0.0,0.0
25/09/2022,06:09:11,0.007,0.0,0.0,0.0
25/09/2022,06:10:03,0.008,0.0,0.001,0.001
25/09/2022,06:11:10,0.008,0.0,0.001,0.0
25/09/2022,06:12:10,0.009,0.0,0.001,0.0
25/09/2022,06:13:02,0.008,0.0,0.001,0.0
25/09/2022,06:14:03,0.009,0.0,0.001,0.0
25/09/2022,06:15:02,0.010,0.0,0.001,0.0
25/09/2022,06:16:02,0.010,0.0,0.001,0.0
25/09/2022,06:17:03,0.011,0.0,0.002,0.001
25/09/2022,06:18:02,0.010,0.0,0.002,0.0
25/09/2022,06:19:10,0.012,0.0,0.002,0.0
25/09/2022,06:20:02,0.013,0.0,0.002,0.0
25/09/2022,06:21:02,0.012,0.0,0.002,0.0
25/09/2022,06:22:11,0.013,0.0,0.003,0.001
25/09/2022,06:22:50,0.014,0.0,0.003,0.0
25/09/2022,06:24:03,0.014,0.0,0.003,0.0
25/09/2022,06:25:03,0.015,0.0,0.003,0.0
25/09/2022,06:26:03,0.016,0.0,0.004,0.001
25/09/2022,06:27:02,0.014,0.0,0.004,0.0
25/09/2022,06:28:02,0.017,0.0,0.004,0.0
25/09/2022,06:29:03,0.018,0.0,0.004,0.0
25/09/2022,06:30:02,0.018,0.0,0.005,0.001
25/09/2022,06:31:03,0.018,0.0,0.005,0.0
25/09/2022,06:32:03,0.019,0.0,0.005,0.0
25/09/2022,06:33:03,0.020,0.0,0.006,0.001
25/09/2022,06:34:03,0.020,0.0,0.006,0.0
25/09/2022,06:35:11,0.022,0.0,0.006,0.0
25/09/2022,06:36:03,0.023,0.0,0.007,0.001
25/09/2022,06:37:03,0.023,0.0,0.007,0.0
25/09/2022,06:38:10,0.025,0.0,0.008,0.001
25/09/2022,06:39:03,0.025,0.0,0.008,0.0
25/09/2022,06:40:03,0.026,0.0,0.008,0.0
25/09/2022,06:41:02,0.027,0.0,0.009,0.001
25/09/2022,06:42:03,0.028,0.0,0.009,0.0
25/09/2022,06:43:02,0.029,0.0,0.01,0.001
25/09/2022,06:44:03,0.030,0.0,0.01,0.0
25/09/2022,06:45:11,0.031,0.0,0.011,0.001
25/09/2022,06:46:02,0.031,0.0,0.011,0.0
25/09/2022,06:47:03,0.033,0.0,0.012,0.001
25/09/2022,06:48:11,0.034,0.0,0.012,0.0
25/09/2022,06:49:02,0.035,0.0,0.013,0.001
25/09/2022,06:50:02,0.035,0.0,0.013,0.0
25/09/2022,06:51:02,0.038,0.0,0.014,0.001
25/09/2022,06:52:03,0.039,0.0,0.015,0.001
25/09/2022,06:53:02,0.039,0.0,0.015,0.0
25/09/2022,06:54:02,0.040,0.0,0.016,0.001
25/09/2022,06:55:11,0.041,0.0,0.017,0.001
25/09/2022,06:56:02,0.042,0.0,0.017,0.0
25/09/2022,06:57:02,0.044,0.0,0.018,0.001
25/09/2022,06:58:02,0.045,0.0,0.019,0.001
25/09/2022,06:59:02,0.046,0.0,0.02,0.001
25/09/2022,07:00:03,0.048,0.0,0.02,0.0
25/09/2022,07:01:02,0.049,0.0,0.021,0.001
25/09/2022,07:02:02,0.051,0.0,0.022,0.001
25/09/2022,07:03:10,0.052,0.0,0.023,0.001
25/09/2022,07:04:11,0.055,0.0,0.024,0.001
25/09/2022,07:05:03,0.057,0.0,0.025,0.001
25/09/2022,07:06:03,0.058,0.0,0.026,0.001
25/09/2022,07:07:02,0.059,0.0,0.027,0.001
25/09/2022,07:08:03,0.061,0.0,0.028,0.001
25/09/2022,07:09:03,0.062,0.0,0.029,0.001
25/09/2022,07:10:03,0.064,0.0,0.03,0.001
25/09/2022,07:11:03,0.066,0.0,0.031,0.001
25/09/2022,07:12:02,0.068,0.0,0.032,0.001
25/09/2022,07:13:02,0.069,0.0,0.033,0.001
25/09/2022,07:14:10,0.073,0.0,0.034,0.001
25/09/2022,07:15:03,0.073,0.0,0.036,0.002
25/09/2022,07:16:03,0.075,0.0,0.037,0.001
25/09/2022,07:17:11,0.077,0.0,0.038,0.001
25/09/2022,07:18:02,0.078,0.0,0.039,0.001
25/09/2022,07:19:02,0.080,0.0,0.041,0.002
25/09/2022,07:20:03,0.082,0.0,0.042,0.001
25/09/2022,07:20:53,0.084,0.0,0.043,0.001
25/09/2022,07:22:03,0.086,0.0,0.045,0.002
25/09/2022,07:23:03,0.089,0.0,0.046,0.001
25/09/2022,07:24:03,0.092,0.0,0.048,0.002
25/09/2022,07:25:02,0.094,0.0,0.049,0.001
25/09/2022,07:26:02,0.096,0.0,0.051,0.002
25/09/2022,07:27:11,0.099,0.0,0.053,0.002
25/09/2022,07:28:02,0.101,0.0,0.054,0.001
25/09/2022,07:29:02,0.104,0.0,0.056,0.002
25/09/2022,07:30:03,0.106,0.0,0.058,0.002
25/09/2022,07:31:03,0.108,0.0,0.059,0.001
25/09/2022,07:32:03,0.110,0.0,0.061,0.002
25/09/2022,07:33:02,0.112,0.0,0.063,0.002
25/09/2022,07:34:02,0.112,0.0,0.065,0.002
25/09/2022,07:35:03,0.114,0.0,0.067,0.002
25/09/2022,07:36:03,0.119,0.0,0.069,0.002
25/09/2022,07:37:03,0.122,0.0,0.071,0.002
25/09/2022,07:38:04,0.122,0.0,0.073,0.002
25/09/2022,07:39:03,0.127,0.0,0.075,0.002
25/09/2022,07:40:11,0.128,0.0,0.077,0.002
25/09/2022,07:41:02,0.130,0.0,0.079,0.002
25/09/2022,07:42:02,0.132,0.0,0.081,0.002
25/09/2022,07:43:03,0.133,0.0,0.084,0.003
25/09/2022,07:44:03,0.137,0.0,0.086,0.002
25/09/2022,07:45:02,0.140,0.0,0.088,0.002
25/09/2022,07:46:03,0.142,0.0,0.09,0.002
25/09/2022,07:47:10,0.146,0.0,0.093,0.003
25/09/2022,07:48:02,0.150,0.0,0.095,0.002
25/09/2022,07:49:03,0.151,0.0,0.098,0.003
25/09/2022,07:50:03,0.155,0.0,0.1,0.002
25/09/2022,07:51:03,0.157,0.0,0.103,0.003
25/09/2022,07:52:03,0.160,0.0,0.106,0.003
25/09/2022,07:53:03,0.164,0.0,0.108,0.002
25/09/2022,07:54:02,0.165,0.0,0.111,0.003
25/09/2022,07:55:02,0.168,0.0,0.114,0.003
25/09/2022,07:56:02,0.171,0.0,0.117,0.003
25/09/2022,07:57:02,0.174,0.0,0.119,0.002
25/09/2022,07:58:03,0.176,0.0,0.122,0.003
25/09/2022,07:58:55,0.179,0.0,0.125,0.003
25/09/2022,08:00:03,0.183,0.0,0.128,0.003
25/09/2022,08:01:03,0.185,0.0,0.131,0.003
25/09/2022,08:02:03,0.189,0.0,0.135,0.004
25/09/2022,08:03:02,0.194,0.0,0.138,0.003
25/09/2022,08:04:02,0.197,0.0,0.141,0.003
25/09/2022,08:05:03,0.202,0.0,0.144,0.003
25/09/2022,08:06:03,0.205,0.0,0.148,0.004
25/09/2022,08:07:02,0.206,0.0,0.151,0.003
25/09/2022,08:08:03,0.211,0.0,0.155,0.004
25/09/2022,08:09:03,0.214,0.0,0.158,0.003
25/09/2022,08:10:03,0.218,1.0,0.162,0.004
25/09/2022,08:11:02,0.222,1.0,0.165,0.003
25/09/2022,08:12:03,0.225,1.0,0.169,0.004
25/09/2022,08:13:11,0.232,1.0,0.174,0.005
25/09/2022,08:14:02,0.235,1.0,0.177,0.003
25/09/2022,08:15:02,0.240,1.0,0.181,0.004
25/09/2022,08:16:03,0.245,1.0,0.185,0.004
25/09/2022,08:17:03,0.250,1.0,0.189,0.004
25/09/2022,08:18:03,0.256,1.0,0.193,0.004
25/09/2022,08:19:11,0.261,1.0,0.198,0.005
25/09/2022,08:20:11,0.267,1.0,0.203,0.005
25/09/2022,08:20:58,0.271,1.0,0.206,0.003
25/09/2022,08:22:02,0.276,1.0,0.211,0.005
25/09/2022,08:23:03,0.280,1.0,0.216,0.005
25/09/2022,08:24:03,0.286,1.0,0.22,0.004
25/09/2022,08:25:13,0.290,1.0,0.226,0.006
25/09/2022,08:26:02,0.295,1.0,0.23,0.004
25/09/2022,08:27:02,0.299,1.0,0.235,0.005
25/09/2022,08:28:03,0.304,1.0,0.24,0.005
25/09/2022,08:29:10,0.310,1.0,0.246,0.006
25/09/2022,08:30:02,0.313,1.0,0.25,0.004
25/09/2022,08:31:03,0.318,1.0,0.255,0.005
25/09/2022,08:32:03,0.323,1.0,0.261,0.006
25/09/2022,08:33:03,0.329,1.0,0.266,0.005
25/09/2022,08:34:02,0.314,1.0,0.272,0.006
25/09/2022,08:35:02,0.339,1.0,0.277,0.005
25/09/2022,08:36:03,0.344,1.0,0.283,0.006
25/09/2022,08:37:03,0.351,1.0,0.289,0.006
25/09/2022,08:38:03,0.354,1.0,0.295,0.006
25/09/2022,08:39:03,0.362,1.0,0.3,0.005
25/09/2022,08:40:03,0.369,1.0,0.307,0.007
25/09/2022,08:41:03,0.376,1.0,0.313,0.006
25/09/2022,08:42:11,0.383,1.0,0.32,0.007
25/09/2022,08:43:02,0.392,1.0,0.326,0.006
25/09/2022,08:44:03,0.397,1.0,0.332,0.006
25/09/2022,08:45:03,0.406,1.0,0.339,0.007
25/09/2022,08:46:03,0.414,1.0,0.346,0.007
25/09/2022,08:47:03,0.424,1.0,0.353,0.007
25/09/2022,08:48:02,0.432,1.0,0.36,0.007
25/09/2022,08:49:02,0.438,1.0,0.367,0.007
25/09/2022,08:50:03,0.447,1.0,0.374,0.007
25/09/2022,08:51:03,0.433,1.0,0.382,0.008
25/09/2022,08:52:11,0.455,1.0,0.39,0.008
25/09/2022,08:53:03,0.462,1.0,0.397,0.007
25/09/2022,08:54:03,0.463,1.0,0.404,0.007
25/09/2022,08:55:11,0.476,1.0,0.413,0.009
25/09/2022,08:56:02,0.450,1.0,0.42,0.007
25/09/2022,08:57:03,0.482,1.0,0.427,0.007
25/09/2022,08:58:03,0.491,1.0,0.436,0.009
25/09/2022,08:59:02,0.446,1.0,0.443,0.007
25/09/2022,09:00:03,0.453,1.0,0.451,0.008
25/09/2022,09:01:03,0.462,1.0,0.459,0.008
25/09/2022,09:02:11,0.448,1.0,0.468,0.009
25/09/2022,09:03:03,0.436,1.0,0.474,0.006
25/09/2022,09:04:02,0.431,1.0,0.481,0.007
25/09/2022,09:05:11,0.437,1.0,0.49,0.009
25/09/2022,09:06:03,0.446,1.0,0.496,0.006
25/09/2022,09:07:11,0.435,1.0,0.504,0.008
25/09/2022,09:08:11,0.424,1.0,0.511,0.007
25/09/2022,09:09:02,0.415,1.0,0.517,0.006
25/09/2022,09:10:03,0.419,1.0,0.524,0.007
25/09/2022,09:11:03,0.419,1.0,0.531,0.007
25/09/2022,09:12:03,0.411,1.0,0.538,0.007
25/09/2022,09:13:03,0.415,1.0,0.545,0.007
25/09/2022,09:14:03,0.419,1.0,0.552,0.007
25/09/2022,09:15:05,0.421,1.0,0.559,0.007
25/09/2022,09:16:02,0.418,1.0,0.566,0.007
25/09/2022,09:17:02,0.415,1.0,0.573,0.007
25/09/2022,09:18:03,0.413,1.0,0.58,0.007
25/09/2022,09:19:03,0.408,1.0,0.587,0.007
25/09/2022,09:20:03,0.405,1.0,0.593,0.006
25/09/2022,09:21:11,0.405,1.0,0.601,0.008
25/09/2022,09:22:03,0.401,1.0,0.607,0.006
25/09/2022,09:23:03,0.396,1.0,0.613,0.006
25/09/2022,09:24:02,0.391,1.0,0.62,0.007
25/09/2022,09:25:02,0.387,1.0,0.627,0.007
25/09/2022,09:26:03,0.386,1.0,0.633,0.006
25/09/2022,09:27:02,0.387,1.0,0.639,0.006
25/09/2022,09:28:03,0.388,1.0,0.646,0.007
25/09/2022,09:29:03,0.387,1.0,0.652,0.006
25/09/2022,09:30:03,0.385,1.0,0.659,0.007
25/09/2022,09:31:11,0.382,1.0,0.666,0.007
25/09/2022,09:32:03,0.380,1.0,0.671,0.005
25/09/2022,09:33:02,0.382,1.0,0.678,0.007
25/09/2022,09:34:03,0.386,1.0,0.684,0.006
25/09/2022,09:35:03,0.388,1.0,0.691,0.007
25/09/2022,09:36:03,0.389,1.0,0.697,0.006
25/09/2022,09:37:03,0.394,1.0,0.704,0.007
25/09/2022,09:38:02,0.402,1.0,0.71,0.006
25/09/2022,09:39:03,0.411,1.0,0.717,0.007
25/09/2022,09:40:03,0.423,1.0,0.724,0.007
25/09/2022,09:41:03,0.428,1.0,0.731,0.007
25/09/2022,09:42:02,0.431,1.0,0.738,0.007
25/09/2022,09:43:03,0.427,1.0,0.745,0.007
25/09/2022,09:44:02,0.420,1.0,0.752,0.007
25/09/2022,09:45:03,0.414,1.0,0.759,0.007
25/09/2022,09:46:03,0.411,1.0,0.766,0.007
25/09/2022,09:47:03,0.409,1.0,0.773,0.007
25/09/2022,09:48:03,0.409,1.0,0.78,0.007
25/09/2022,09:49:02,0.408,1.0,0.787,0.007
25/09/2022,09:50:03,0.407,1.0,0.793,0.006
25/09/2022,09:51:02,0.409,1.0,0.8,0.007
25/09/2022,09:52:03,0.415,1.0,0.807,0.007
25/09/2022,09:53:03,0.424,1.0,0.814,0.007
25/09/2022,09:54:03,0.436,1.0,0.821,0.007
25/09/2022,09:55:03,0.441,1.0,0.829,0.008
25/09/2022,09:56:02,0.433,1.0,0.836,0.007
25/09/2022,09:57:03,0.416,1.0,0.843,0.007
25/09/2022,09:58:03,0.409,1.0,0.85,0.007
25/09/2022,09:59:03,0.402,1.0,0.857,0.007
25/09/2022,10:00:03,0.398,1.0,0.863,0.006
25/09/2022,10:01:03,0.398,1.0,0.87,0.007
25/09/2022,10:02:03,0.398,1.0,0.877,0.007
25/09/2022,10:03:11,0.393,1.0,0.884,0.007
25/09/2022,10:04:03,0.391,1.0,0.89,0.006
25/09/2022,10:05:03,0.395,1.0,0.896,0.006
25/09/2022,10:06:02,0.404,1.0,0.903,0.007
25/09/2022,10:07:03,0.416,1.0,0.91,0.007
25/09/2022,10:08:03,0.441,1.0,0.917,0.007
25/09/2022,10:09:03,0.467,1.0,0.925,0.008
25/09/2022,10:10:03,0.489,1.0,0.933,0.008
25/09/2022,10:11:03,0.506,1.0,0.941,0.008